Back to catalog

HAIYANG 4A

AliveScienceSSO
NORAD 61936·PAYLOAD·🇨🇳 China

Launched Nov 13, 2024 from Taiyuan Satellite Launch Center

Loading…

Next Passes (next 24 hours)

TLE

FreshSource: Space-Track

Epoch: Sep 14, 2026, 15:18 UTC

1 61936U 24208A   26257.63762341  .00000310  00000-0  55646-4 0  9999
2 61936  98.0072 264.1831 0000925 110.5377 249.5930 14.73287290 98617

Track HAIYANG 4A in real time with AllMySat

Download on the App Store